This is the latest recevied weather packets stored in our database for station/object KJ4HF. If no packets are shown the sender has not sent any weather packets the latest 10 day(s).
| Time | Temp. | Humidity | Pressure | Rain* | Wind** | Luminosity | Snow |
|---|---|---|---|---|---|---|---|
| 1777423842 | 15° C | 89% | 1017.8 hPa | 0 mm | - | 0 W/m² | - |
| 1777423243 | 15.56° C | 90% | 1017.3 hPa | 0 mm | - | 0 W/m² | - |
| 1777420853 | 15.56° C | 86% | 1017.2 hPa | 0 mm | - | 0 W/m² | - |
| 1777420542 | 16.11° C | 84% | 1017 hPa | 0 mm | - | 0 W/m² | - |
| 1777419970 | 16.11° C | 83% | 1017.1 hPa | 0 mm | - | 12 W/m² | - |
| 1777419645 | 16.67° C | 82% | 1017 hPa | 0 mm | - | 26 W/m² | - |
| 1777417544 | 16.67° C | 81% | 1016.4 hPa | 0 mm | - | 58 W/m² | - |
| 1777417261 | 16.67° C | 81% | 1016.7 hPa | 0 mm | - | 49 W/m² | - |
| 1777413342 | 17.22° C | 78% | 1017.7 hPa | 0 mm | - | 132 W/m² | - |
| 1777412145 | 17.22° C | 81% | 1017.9 hPa | 0 mm | - | 160 W/m² | - |
| 1777411244 | 17.22° C | 78% | 1018 hPa | 0 mm | - | 139 W/m² | - |
| 1777410952 | 17.22° C | 77% | 1017.9 hPa | 0 mm | - | 179 W/m² | - |
| 1777410049 | 17.22° C | 79% | 1017.8 hPa | 0 mm | - | 190 W/m² | - |
| 1777409744 | 17.22° C | 78% | 1017.8 hPa | 0 mm | - | 146 W/m² | - |
| 1777408543 | 17.78° C | 77% | 1018 hPa | 0 mm | - | 385 W/m² | - |
| 1777408259 | 17.22° C | 78% | 1018.1 hPa | 0 mm | - | 267 W/m² | - |
| 1777407043 | 17.22° C | 77% | 1018.5 hPa | 0 mm | - | 195 W/m² | - |
| 1777406743 | 17.22° C | 79% | 1018.5 hPa | 0 mm | - | 229 W/m² | - |
| 1777406453 | 17.22° C | 79% | 1018.6 hPa | 0 mm | - | 315 W/m² | - |
| 1777406143 | 17.78° C | 78% | 1018.5 hPa | 0 mm | - | 216 W/m² | - |
| 1777405846 | 17.78° C | 76% | 1018.7 hPa | 0 mm | - | 253 W/m² | - |
| 1777404660 | 17.22° C | 78% | 1018.8 hPa | 0 mm | - | 480 W/m² | - |
| 1777403143 | 16.67° C | 82% | 1019.2 hPa | 0 mm | - | 348 W/m² | - |
| 1777402544 | 16.67° C | 83% | 1019.6 hPa | 0 mm | - | 362 W/m² | - |
| 1777401959 | 16.11° C | 82% | 1019.7 hPa | 0 mm | - | 294 W/m² | - |
* Rain latest hour (hover to see other rain measurements)
** Current wind speed in m/s (hover to see current wind gust speed)